Location: Unspecified
(42.2600°N, 0.0000°E)
Time: 04:06:35
(UTC+00:00)

ISS - Pass Details

Date: 29 May 2019
Orbit: 408 x 418 km, 51.6° (Epoch: 17 June)

Event Time Altitude Azimuth Distance (km) Brightness Sun altitude
Rises 21:17:52 0° 307° (NW) 2,357 1.6 -16.2°
Reaches altitude 10° 21:20:09 10° 320° (NW) 1,495 0.4 -16.5°
Maximum altitude 21:23:06 28° 21° (NNE) 827 -2.0 -16.8°
Enters shadow 21:25:07 16° 72° (ENE) 1,189 -1.7 -17.0°
